This is the latest recevied weather packets stored in our database for station/object N6WDO. If no packets are shown the sender has not sent any weather packets the latest 10 day(s).
| Time | Temp. | Humidity | Pressure | Rain* | Wind** | Luminosity | Snow |
|---|---|---|---|---|---|---|---|
| 1777930894 | 10° C | 93% | 1016.8 hPa | 0 mm | - | 67 W/m² | - |
| 1777930591 | 10° C | 93% | 1016.8 hPa | 0 mm | - | 57 W/m² | - |
| 1777930288 | 10° C | 93% | 1017 hPa | 0 mm | - | 53 W/m² | - |
| 1777929984 | 10° C | 93% | 1016.8 hPa | 0 mm | - | 51 W/m² | - |
| 1777929681 | 10° C | 93% | 1016.9 hPa | 0 mm | - | 55 W/m² | - |
| 1777929379 | 10° C | 93% | 1017 hPa | 0 mm | - | 75 W/m² | - |
| 1777929075 | 10.56° C | 92% | 1016.8 hPa | 0 mm | - | 86 W/m² | - |
| 1777928773 | 10.56° C | 92% | 1016.8 hPa | 0 mm | - | 108 W/m² | - |
| 1777928469 | 10.56° C | 91% | 1017.1 hPa | 0 mm | - | 126 W/m² | - |
| 1777928167 | 10.56° C | 92% | 1016.9 hPa | 0 mm | - | 101 W/m² | - |
| 1777927864 | 10.56° C | 91% | 1016.9 hPa | 0 mm | - | 86 W/m² | - |
| 1777927563 | 10.56° C | 89% | 1016.9 hPa | 0 mm | - | 71 W/m² | - |
| 1777927261 | 10.56° C | 89% | 1016.8 hPa | 0 mm | - | 67 W/m² | - |
| 1777926959 | 10.56° C | 89% | 1017.1 hPa | 0 mm | - | 71 W/m² | - |
| 1777926656 | 10.56° C | 89% | 1017 hPa | 0 mm | - | 85 W/m² | - |
| 1777926351 | 10.56° C | 89% | 1017 hPa | 0 mm | - | 95 W/m² | - |
| 1777926049 | 10.56° C | 89% | 1017.1 hPa | 0 mm | - | 108 W/m² | - |
| 1777925745 | 10° C | 89% | 1017 hPa | 0 mm | - | 117 W/m² | - |
| 1777925443 | 10° C | 90% | 1016.8 hPa | 0 mm | - | 119 W/m² | - |
| 1777925139 | 10° C | 90% | 1016.9 hPa | 0 mm | - | 123 W/m² | - |
| 1777924836 | 10° C | 91% | 1016.9 hPa | 0 mm | - | 115 W/m² | - |
| 1777924532 | 10° C | 91% | 1016.9 hPa | 0 mm | - | 105 W/m² | - |
| 1777924229 | 10° C | 91% | 1017 hPa | 0 mm | - | 102 W/m² | - |
| 1777923926 | 10° C | 90% | 1017.1 hPa | 0 mm | - | 105 W/m² | - |
| 1777923621 | 10° C | 90% | 1017 hPa | 0 mm | - | 121 W/m² | - |
* Rain latest hour (hover to see other rain measurements)
** Current wind speed in m/s (hover to see current wind gust speed)